CW4141 Weather Reports


Display with metric or nautical units.
time (UTC)temp
F
wind
direction
speed
MPH
gust
MPH
rain 1hr
in
rain 24hr
in
rain mn
in
humidity
%
barometer
mb
20260903081602 59 0 0.0 0.0 0.00 0.00 0.00 78 1016.6
20260903081524 59 154 0.0 0.0 0.00 0.00 0.00 79 1012.7
20260903080021 59 154 0.0 0.0 0.00 0.00 0.00 78 1012.9
20260903074603 60 0 0.0 0.0 0.00 0.00 0.00 78 1016.6
20260903074519 60 154 0.0 0.0 0.00 0.00 0.00 79 1012.8
20260903073112 61 0 0.0 0.0 0.00 0.00 0.00 78 1016.6
20260903073017 61 154 0.0 0.0 0.00 0.00 0.00 79 1012.9
20260903071605 61 0 0.0 0.0 0.00 0.00 0.00 78 1016.6
20260903071518 61 154 0.0 0.0 0.00 0.00 0.00 78 1013.0
20260903070103 61 0 0.0 0.0 0.00 0.00 0.00 78 1016.5
20260903070019 61 154 0.0 0.0 0.00 0.00 0.00 78 1012.8
20260903064607 62 0 0.0 0.0 0.00 0.00 0.00 77 1016.5
20260903064512 62 154 0.0 0.0 0.00 0.00 0.00 78 1012.9
20260903063105 62 0 0.0 0.0 0.00 0.00 0.00 77 1016.6
20260903063013 62 154 0.0 0.0 0.00 0.00 0.00 78 1013.0
20260903061604 62 0 0.0 1.0 0.00 0.00 0.00 77 1016.6
20260903061512 62 154 0.0 0.0 0.00 0.00 0.00 78 1012.9
20260903060014 63 154 0.0 2.0 0.00 0.00 0.00 79 1013.0
20260903054557 63 0 0.0 5.0 0.00 0.00 0.00 77 1016.6
20260903054519 63 154 0.0 4.0 0.00 0.00 0.00 77 1013.0
20260903053112 63 153 0.0 3.0 0.00 0.00 0.00 72 1016.7
20260903053010 63 154 1.0 3.0 0.00 0.00 0.00 73 1013.0
20260903051559 64 0 0.0 2.0 0.00 0.00 0.00 70 1016.8
20260903051510 64 153 0.0 2.0 0.00 0.00 0.00 70 1013.1
20260903050106 65 0 0.0 1.0 0.00 0.00 0.00 68 1016.8
20260903050009 65 153 0.0 1.0 0.00 0.00 0.00 68 1013.1
20260903044605 65 0 0.0 2.0 0.00 0.00 0.00 66 1016.7
20260903044509 65 154 0.0 2.0 0.00 0.00 0.00 66 1012.9
20260903043102 66 0 0.0 2.0 0.00 0.00 0.00 63 1016.6
20260903043014 66 154 0.0 2.0 0.00 0.00 0.00 63 1012.7
20260903041600 66 0 0.0 1.0 0.00 0.00 0.00 59 1016.5
20260903041515 66 154 0.0 1.0 0.00 0.00 0.00 60 1012.6
20260903040107 67 0 0.0 3.0 0.00 0.00 0.00 59 1016.3
20260903040009 67 154 0.0 3.0 0.00 0.00 0.00 60 1012.4
20260903034554 68 0 0.0 3.0 0.00 0.00 0.00 59 1016.0
20260903034508 68 153 0.0 2.0 0.00 0.00 0.00 60 1012.2
20260903033100 68 153 0.0 6.0 0.00 0.00 0.00 58 1015.8
20260903033006 68 153 1.0 4.0 0.00 0.00 0.00 58 1012.0
20260903031605 69 0 1.0 4.0 0.00 0.00 0.00 55 1015.6
20260903031514 69 184 1.0 4.0 0.00 0.00 0.00 56 1011.6
20260903030112 70 0 0.0 5.0 0.00 0.00 0.00 55 1015.4
20260903030005 70 198 0.0 5.0 0.00 0.00 0.00 56 1011.5
20260903024559 71 194 1.0 6.0 0.00 0.00 0.00 50 1015.4
20260903024504 71 187 1.0 6.0 0.00 0.00 0.00 50 1011.6
20260903023058 72 180 1.0 4.0 0.00 0.00 0.00 46 1015.3
20260903023004 72 180 1.0 4.0 0.00 0.00 0.00 47 1011.5
20260903021557 73 198 1.0 4.0 0.00 0.00 0.00 45 1015.3
20260903021507 73 198 1.0 4.0 0.00 0.00 0.00 46 1011.4
20260903020057 74 0 1.0 7.0 0.00 0.00 0.00 43 1015.3
20260903020002 74 198 1.0 6.0 0.00 0.00 0.00 44 1011.4
20260903014611 75 213 2.0 7.0 0.00 0.00 0.00 38 1015.2
20260903014502 76 213 2.0 6.0 0.00 0.00 0.00 38 1011.4
20260903013102 77 0 2.0 9.0 0.00 0.00 0.00 36 1015.1
20260903013000 77 161 1.0 9.0 0.00 0.00 0.00 36 1011.3
20260903011608 78 132 0.0 7.0 0.00 0.00 0.00 36 1015.0
20260903011601 78 132 1.0 6.0 0.00 0.00 0.00 36 1011.0
20260903010115 78 136 3.0 9.0 0.00 0.00 0.00 33 1014.9
20260903010100 78 138 3.0 8.0 0.00 0.00 0.00 34 1010.9
20260903004600 79 220 1.0 9.0 0.00 0.00 0.00 34 1010.9
20260903004550 79 220 2.0 10.0 0.00 0.00 0.00 33 1014.8
20260903003105 80 200 4.0 10.0 0.00 0.00 0.00 31 1014.7
20260903003059 80 200 4.0 9.0 0.00 0.00 0.00 31 1010.9
20260903001559 81 219 4.0 11.0 0.00 0.00 0.00 32 1010.8
20260903000058 84 132 3.0 7.0 0.00 0.00 0.00 30 1010.8
20260903000056 84 131 3.0 8.0 0.00 0.00 0.00 30 1014.6
20260902234600 86 192 0.0 6.0 0.00 0.00 0.00 27 1010.8
20260902234556 86 0 2.0 7.0 0.00 0.00 0.00 27 1014.6
20260902233059 87 0 3.0 10.0 0.00 0.00 0.00 24 1014.7
20260902233057 87 224 2.0 9.0 0.00 0.00 0.00 25 1010.9
20260902231611 88 228 3.0 7.0 0.00 0.00 0.00 20 1014.8
20260902231557 88 214 4.0 8.0 0.00 0.00 0.00 21 1010.9
20260902230057 90 209 2.0 7.0 0.00 0.00 0.00 17 1014.8
20260902224604 91 0 1.0 5.0 0.00 0.00 0.00 16 1015.0
20260902224556 91 207 1.0 5.0 0.00 0.00 0.00 17 1011.3
20260902223104 90 142 1.0 7.0 0.00 0.00 0.00 15 1011.4
20260902223102 90 142 2.0 7.0 0.00 0.00 0.00 15 1015.0
20260902221619 90 142 0.0 5.0 0.00 0.00 0.00 16 1015.4
20260902221556 90 142 1.0 5.0 0.00 0.00 0.00 17 1011.5
20260902220100 90 216 1.0 6.0 0.00 0.00 0.00 15 1015.6
20260902220051 90 214 1.0 6.0 0.00 0.00 0.00 16 1011.7
20260902214558 90 0 1.0 8.0 0.00 0.00 0.00 14 1015.5
20260902214552 90 155 0.0 7.0 0.00 0.00 0.00 15 1012.0
20260902213100 90 206 2.0 6.0 0.00 0.00 0.00 17 1015.7
20260902213047 90 206 1.0 6.0 0.00 0.00 0.00 17 1012.0
20260902211557 89 0 1.0 8.0 0.00 0.00 0.00 19 1015.9
20260902211546 89 130 1.0 8.0 0.00 0.00 0.00 19 1012.1
20260902210055 89 243 1.0 10.0 0.00 0.00 0.00 20 1015.9
20260902204554 89 149 0.0 7.0 0.00 0.00 0.00 28 1016.0
20260902204544 89 149 0.0 5.0 0.00 0.00 0.00 29 1012.5
20260902203058 88 0 2.0 7.0 0.00 0.00 0.00 25 1016.3
20260902203039 88 231 1.0 7.0 0.00 0.00 0.00 26 1012.5
20260902201604 87 180 1.0 5.0 0.00 0.00 0.00 25 1016.3
20260902201540 87 180 1.0 5.0 0.00 0.00 0.00 26 1012.6
20260902200105 87 128 2.0 7.0 0.00 0.00 0.00 23 1016.4
20260902200036 87 129 3.0 7.0 0.00 0.00 0.00 23 1012.8
20260902194554 87 143 0.0 8.0 0.00 0.00 0.00 25 1016.6
20260902194538 87 143 0.0 7.0 0.00 0.00 0.00 26 1013.0
20260902193107 87 202 2.0 7.0 0.00 0.00 0.00 23 1016.7
20260902193034 87 202 2.0 7.0 0.00 0.00 0.00 24 1013.0
20260902191619 86 192 1.0 7.0 0.00 0.00 0.00 24 1016.8
20260902191531 86 192 1.0 7.0 0.00 0.00 0.00 25 1013.0
20260902190056 86 219 0.0 4.0 0.00 0.00 0.00 27 1016.7
20260902190026 86 219 1.0 4.0 0.00 0.00 0.00 27 1013.0
20260902184558 84 208 1.0 5.0 0.00 0.00 0.00 25 1017.0
20260902184523 84 208 1.0 5.0 0.00 0.00 0.00 27 1013.2
20260902183127 83 171 1.0 9.0 0.00 0.00 0.00 29 1016.9
20260902183019 83 171 1.0 7.0 0.00 0.00 0.00 29 1013.2
20260902181611 83 235 2.0 6.0 0.00 0.00 0.00 33 1017.3
20260902181515 83 237 2.0 7.0 0.00 0.00 0.00 35 1013.5
20260902180104 82 214 0.0 5.0 0.00 0.00 0.00 35 1017.5
20260902180010 82 213 1.0 4.0 0.00 0.00 0.00 37 1013.6
20260902174555 80 210 1.0 5.0 0.00 0.00 0.00 36 1017.5
20260902174507 80 210 1.0 5.0 0.00 0.00 0.00 36 1013.6
20260902173113 79 223 1.0 4.0 0.00 0.00 0.00 36 1017.5
20260902173002 79 223 0.0 4.0 0.00 0.00 0.00 37 1013.6
20260902171608 77 0 0.0 3.0 0.00 0.00 0.00 43 1017.4
20260902171602 78 223 0.0 3.0 0.00 0.00 0.00 44 1013.6
20260902170103 75 0 0.0 2.0 0.00 0.00 0.00 46 1017.5
20260902170054 75 223 0.0 2.0 0.00 0.00 0.00 46 1013.6
20260902164603 73 223 0.0 3.0 0.00 0.00 0.00 49 1017.4
20260902164550 73 223 0.0 3.0 0.00 0.00 0.00 50 1013.5
20260902163102 71 0 0.0 4.0 0.00 0.00 0.00 53 1017.4
20260902163055 71 223 0.0 4.0 0.00 0.00 0.00 53 1013.5
20260902161552 69 224 0.0 4.0 0.00 0.00 0.00 58 1017.4
20260902161541 69 224 0.0 4.0 0.00 0.00 0.00 58 1013.5
20260902160108 67 224 0.0 4.0 0.00 0.00 0.00 62 1017.4
20260902160036 67 224 1.0 3.0 0.00 0.00 0.00 63 1013.5
20260902154558 64 0 0.0 3.0 0.00 0.00 0.00 74 1017.3
20260902154531 64 225 0.0 3.0 0.00 0.00 0.00 75 1013.5
20260902153056 61 0 0.0 1.0 0.00 0.00 0.00 89 1017.3
20260902153031 61 225 0.0 1.0 0.00 0.00 0.00 89 1013.5
20260902151553 59 0 0.0 0.0 0.00 0.00 0.00 90 1017.5
20260902151530 59 224 0.0 0.0 0.00 0.00 0.00 91 1013.8
20260902150028 57 225 0.0 1.0 0.00 0.00 0.00 90 1013.7
20260902144558 57 0 0.0 2.0 0.00 0.00 0.00 89 1017.5
20260902144534 57 225 0.0 2.0 0.00 0.00 0.00 90 1013.7
20260902143059 56 225 0.0 2.0 0.00 0.00 0.00 89 1017.4
20260902143024 56 224 0.0 2.0 0.00 0.00 0.00 89 1013.5
20260902141602 55 0 0.0 0.0 0.00 0.00 0.00 86 1017.2
20260902141530 55 224 0.0 0.0 0.00 0.00 0.00 87 1013.3
20260902140100 55 0 0.0 0.0 0.00 0.00 0.00 86 1017.0
20260902140030 55 224 0.0 0.0 0.00 0.00 0.00 87 1013.0
20260902134558 55 0 0.0 0.0 0.00 0.00 0.00 87 1016.7
20260902134518 55 224 0.0 0.0 0.00 0.00 0.00 87 1012.9
20260902133056 56 0 0.0 0.0 0.00 0.00 0.00 87 1016.7
20260902133017 56 225 0.0 0.0 0.00 0.00 0.00 87 1012.9
20260902131602 56 0 0.0 0.0 0.00 0.00 0.00 87 1016.7
20260902131528 56 224 0.0 0.0 0.00 0.00 0.00 87 1012.9
20260902130057 56 0 0.0 0.0 0.00 0.00 0.00 86 1016.5
20260902130015 56 225 0.0 0.0 0.00 0.00 0.00 87 1012.8
20260902124556 55 0 0.0 0.0 0.00 0.00 0.00 85 1016.5
20260902124514 55 224 0.0 0.0 0.00 0.00 0.00 86 1012.9
20260902123106 55 0 0.0 0.0 0.00 0.00 0.00 84 1016.6
20260902123016 55 224 0.0 0.0 0.00 0.00 0.00 85 1012.9
20260902121600 56 0 0.0 0.0 0.00 0.00 0.00 84 1016.7
20260902121513 56 225 0.0 0.0 0.00 0.00 0.00 84 1013.0
20260902120059 56 0 0.0 0.0 0.00 0.00 0.00 84 1017.0
20260902120009 56 225 0.0 0.0 0.00 0.00 0.00 84 1013.2
20260902114556 56 0 0.0 0.0 0.00 0.00 0.00 84 1016.9
20260902114513 56 224 0.0 0.0 0.00 0.00 0.00 84 1013.2
20260902113102 57 0 0.0 0.0 0.00 0.00 0.00 83 1017.1
20260902113006 57 224 0.0 0.0 0.00 0.00 0.00 84 1013.1
20260902111550 57 0 0.0 0.0 0.00 0.00 0.00 83 1017.1
20260902111512 57 224 0.0 0.0 0.00 0.00 0.00 84 1013.3
20260902110058 58 0 0.0 0.0 0.00 0.00 0.00 83 1017.1
20260902110003 58 225 0.0 0.0 0.00 0.00 0.00 84 1013.3
20260902104607 58 0 0.0 0.0 0.00 0.00 0.00 83 1017.2
20260902104601 58 224 0.0 0.0 0.00 0.00 0.00 84 1013.4
20260902103104 59 225 0.0 0.0 0.00 0.00 0.00 84 1013.4
20260902103052 59 0 0.0 0.0 0.00 0.00 0.00 83 1017.3
20260902101600 59 0 0.0 0.0 0.00 0.00 0.00 83 1017.3
20260902101557 59 225 0.0 0.0 0.00 0.00 0.00 84 1013.5
20260902100112 60 224 0.0 0.0 0.00 0.00 0.00 84 1013.4
20260902100058 60 0 0.0 0.0 0.00 0.00 0.00 83 1017.4
20260902094558 60 0 0.0 0.0 0.00 0.00 0.00 83 1017.6
20260902094554 60 225 0.0 0.0 0.00 0.00 0.00 83 1013.5
20260902093101 60 0 0.0 0.0 0.00 0.00 0.00 83 1017.6
20260902093052 60 224 0.0 0.0 0.00 0.00 0.00 83 1013.5
20260902091606 61 225 0.0 0.0 0.00 0.00 0.00 83 1013.5
20260902091600 61 0 0.0 0.0 0.00 0.00 0.00 83 1017.7
20260902090104 61 0 0.0 0.0 0.00 0.00 0.00 83 1017.5
20260902090049 61 225 0.0 0.0 0.00 0.00 0.00 83 1013.5
20260902084559 62 0 0.0 0.0 0.00 0.00 0.00 83 1017.7
20260902084548 62 225 0.0 0.0 0.00 0.00 0.00 83 1013.7
20260902083106 62 0 0.0 0.0 0.00 0.00 0.00 82 1017.6
20260902083046 62 225 0.0 0.0 0.00 0.00 0.00 82 1013.7